Find Local Weather

World > North America > United States > Alabama

Huntsville, Alabama Regional Weather

Lat: 34.71N, Lon: 86.63W
Wx Zone: ALZ006
Warning FLW WEATHER ALERT - (More Info. Click Here) Warning
Feedback
Expires:201806181000;;718682
ASUS44 KBMX 180910
RWRAL 
             
ALABAMA REGIONAL WEATHER ROUNDUP
NATIONAL WEATHER SERVICE BIRMINGHAM AL
400 AM CDT MON JUN 18 2018

NOTE: "FAIR" INDICATES FEW OR NO CLOUDS BELOW 12,000 FEET
WITH NO SIGNIFICANT WEATHER AND/OR OBSTRUCTIONS TO VISIBILITY.

THE REMARK "TC" DENOTES TEMPERATURE IN DEGREES CELSIUS.


ALZ001>011-014-016>018-020-181000-
NORTH ALABAMA
  
CITY           SKY/WX    TMP DP  RH WIND       PRES   REMARKS
MUSCLE SHOALS  FAIR      70  68  93 CALM      30.13S                  
HUNTSVILLE     FAIR      72  70  93 CALM      30.13S                  
DECATUR          N/A     68  66  93 CALM      30.14R                  
HALEYVILLE     FAIR      67  32  27 CALM      30.16R                  
GADSDEN        CLOUDY    68  68 100 MISG      30.15R FOG              
$$
 

SKY/WX - Weather  TMP - Temperature  DP - Dewpoint  RH - Relative Humidity
WIND - Wind Direction/Speed PRES - Barometric Pressure